Time,TemperatureF,DewpointF,PressureIn,WindDirection,WindDirectionDegrees,WindSpeedMPH,WindSpeedGustMPH,Humidity,HourlyPrecipIn,Conditions,Clouds,dailyrainin,SoftwareType,DateUTC
2013-08-25 00:09:00,77.0,75.4,30.13,NNE,19,0.0,0.0,95,0.00,,,0.00,Weather View 32 v70,2013-08-25 04:09:00,
2013-08-25 00:19:00,76.9,75.7,30.13,NNE,26,0.0,0.0,96,0.00,,,0.00,Weather View 32 v70,2013-08-25 04:19:00,
2013-08-25 00:29:00,76.8,75.6,30.13,NNE,26,0.0,0.0,96,0.00,,,0.00,Weather View 32 v70,2013-08-25 04:29:00,
2013-08-25 00:39:00,76.6,75.4,30.13,NNE,26,0.0,0.0,96,0.00,,,0.00,Weather View 32 v70,2013-08-25 04:39:00,
2013-08-25 00:49:00,76.6,75.4,30.13,NNE,26,0.0,0.0,96,0.00,,,0.00,Weather View 32 v70,2013-08-25 04:49:00,
2013-08-25 00:59:00,75.9,74.7,30.12,NNE,26,0.0,0.0,96,0.00,,,0.00,Weather View 32 v70,2013-08-25 04:59:00,
2013-08-25 01:09:00,75.5,74.3,30.13,NNE,26,0.0,0.0,96,0.00,,,0.00,Weather View 32 v70,2013-08-25 05:09:00,
2013-08-25 01:19:00,75.5,74.3,30.13,NNE,26,0.0,0.0,96,0.00,,,0.00,Weather View 32 v70,2013-08-25 05:19:00,
2013-08-25 01:29:00,75.6,74.4,30.13,NNE,26,0.0,0.0,96,0.00,,,0.00,Weather View 32 v70,2013-08-25 05:29:00,
2013-08-25 01:39:00,75.7,74.5,30.13,NW,325,0.0,0.0,96,0.00,,,0.00,Weather View 32 v70,2013-08-25 05:39:00,
2013-08-25 01:49:00,75.7,74.5,30.13,NW,325,0.0,0.0,96,0.00,,,0.00,Weather View 32 v70,2013-08-25 05:49:00,
2013-08-25 01:59:00,75.6,74.7,30.13,WNW,295,0.0,0.0,97,0.00,,,0.00,Weather View 32 v70,2013-08-25 05:59:00,
2013-08-25 02:10:00,75.5,74.3,30.13,WNW,295,0.0,0.0,96,0.00,,,0.00,Weather View 32 v70,2013-08-25 06:10:00,
2013-08-25 02:20:00,75.4,74.2,30.12,WNW,295,0.0,0.0,96,0.00,,,0.00,Weather View 32 v70,2013-08-25 06:20:00,
2013-08-25 02:30:00,75.5,74.6,30.12,WNW,295,0.0,0.0,97,0.00,,,0.00,Weather View 32 v70,2013-08-25 06:30:00,
2013-08-25 02:39:00,75.5,74.6,30.12,WNW,295,0.0,0.0,97,0.00,,,0.00,Weather View 32 v70,2013-08-25 06:39:00,
2013-08-25 02:51:00,75.6,74.7,30.11,WNW,295,0.0,0.0,97,0.00,,,0.00,Weather View 32 v70,2013-08-25 06:51:00,
2013-08-25 02:59:00,75.5,74.3,30.12,WNW,295,0.0,0.0,96,0.00,,,0.00,Weather View 32 v70,2013-08-25 06:59:00,
2013-08-25 03:09:00,75.3,74.4,30.11,WNW,294,0.0,0.0,97,0.00,,,0.00,Weather View 32 v70,2013-08-25 07:09:00,
2013-08-25 03:19:00,75.3,74.4,30.11,WNW,292,0.0,0.0,97,0.00,,,0.00,Weather View 32 v70,2013-08-25 07:19:00,
2013-08-25 03:29:00,75.3,74.4,30.11,WNW,292,0.0,0.0,97,0.00,,,0.00,Weather View 32 v70,2013-08-25 07:29:00,
2013-08-25 03:39:00,75.3,74.4,30.11,WNW,290,0.0,0.0,97,0.00,,,0.00,Weather View 32 v70,2013-08-25 07:39:00,
2013-08-25 03:49:00,75.2,74.3,30.11,WNW,290,0.0,0.0,97,0.00,,,0.00,Weather View 32 v70,2013-08-25 07:49:00,
2013-08-25 03:51:00,75.2,74.3,30.11,WNW,290,0.0,0.0,97,0.00,,,0.00,Weather View 32 v70,2013-08-25 07:51:00,
2013-08-25 03:59:00,75.1,74.2,30.11,WNW,290,0.0,0.0,97,0.00,,,0.00,Weather View 32 v70,2013-08-25 07:59:00,
2013-08-25 04:09:00,74.9,74.0,30.11,WNW,290,0.0,0.0,97,0.00,,,0.00,Weather View 32 v70,2013-08-25 08:09:00,
2013-08-25 04:19:00,75.0,74.1,30.11,WNW,290,0.0,0.0,97,0.00,,,0.00,Weather View 32 v70,2013-08-25 08:19:00,
2013-08-25 04:29:00,75.0,74.1,30.11,WNW,290,0.0,0.0,97,0.00,,,0.00,Weather View 32 v70,2013-08-25 08:29:00,
2013-08-25 04:39:00,74.9,74.0,30.11,WNW,290,0.0,0.0,97,0.00,,,0.00,Weather View 32 v70,2013-08-25 08:39:00,
2013-08-25 04:49:00,74.9,74.0,30.12,WNW,290,0.0,0.0,97,0.00,,,0.00,Weather View 32 v70,2013-08-25 08:49:00,
2013-08-25 04:52:00,74.9,74.0,30.12,WNW,290,0.0,0.0,97,0.00,,,0.00,Weather View 32 v70,2013-08-25 08:52:00,
2013-08-25 04:59:00,74.9,74.0,30.12,WNW,290,0.0,0.0,97,0.00,,,0.00,Weather View 32 v70,2013-08-25 08:59:00,
2013-08-25 05:09:00,74.8,73.9,30.12,WNW,282,0.0,0.0,97,0.00,,,0.00,Weather View 32 v70,2013-08-25 09:09:00,
2013-08-25 05:19:00,74.8,73.9,30.12,WNW,282,0.0,0.0,97,0.00,,,0.00,Weather View 32 v70,2013-08-25 09:19:00,
2013-08-25 05:29:00,74.8,73.9,30.12,WNW,283,0.0,0.0,97,0.00,,,0.00,Weather View 32 v70,2013-08-25 09:29:00,
2013-08-25 05:39:00,74.7,73.8,30.13,WNW,283,0.0,0.0,97,0.00,,,0.00,Weather View 32 v70,2013-08-25 09:39:00,
2013-08-25 05:49:00,74.6,73.7,30.13,WNW,283,0.0,0.0,97,0.00,,,0.00,Weather View 32 v70,2013-08-25 09:49:00,
2013-08-25 06:00:00,74.6,73.7,30.14,WNW,283,0.0,0.0,97,0.00,,,0.00,Weather View 32 v70,2013-08-25 10:00:00,
2013-08-25 06:09:00,74.5,73.6,30.13,WNW,283,0.0,0.0,97,0.00,,,0.00,Weather View 32 v70,2013-08-25 10:09:00,
2013-08-25 06:20:00,74.4,73.5,30.13,WNW,283,0.0,0.0,97,0.00,,,0.00,Weather View 32 v70,2013-08-25 10:20:00,
2013-08-25 06:29:00,74.4,73.5,30.13,WNW,283,0.0,0.0,97,0.00,,,0.00,Weather View 32 v70,2013-08-25 10:29:00,
2013-08-25 06:39:00,74.4,73.5,30.13,WNW,289,0.0,0.0,97,0.00,,,0.00,Weather View 32 v70,2013-08-25 10:39:00,
2013-08-25 06:49:00,74.2,73.3,30.13,WNW,290,0.0,3.0,97,0.00,,,0.00,Weather View 32 v70,2013-08-25 10:49:00,
2013-08-25 06:53:00,74.2,73.3,30.13,WNW,290,0.0,3.0,97,0.00,,,0.00,Weather View 32 v70,2013-08-25 10:53:00,
2013-08-25 06:59:00,74.3,73.4,30.14,North,5,0.0,3.0,97,0.00,,,0.00,Weather View 32 v70,2013-08-25 10:59:00,
2013-08-25 07:09:00,74.3,73.4,30.14,North,355,0.0,4.0,97,0.00,,,0.00,Weather View 32 v70,2013-08-25 11:09:00,
2013-08-25 07:19:00,74.3,73.4,30.14,NNE,24,0.0,5.0,97,0.00,,,0.00,Weather View 32 v70,2013-08-25 11:19:00,
2013-08-25 07:29:00,74.5,73.6,30.14,North,360,0.0,5.0,97,0.00,,,0.00,Weather View 32 v70,2013-08-25 11:29:00,
2013-08-25 07:39:00,74.6,73.7,30.14,North,360,1.0,5.0,97,0.00,,,0.00,Weather View 32 v70,2013-08-25 11:39:00,
2013-08-25 07:49:00,74.8,73.9,30.15,NE,41,1.0,6.0,97,0.00,,,0.00,Weather View 32 v70,2013-08-25 11:49:00,
2013-08-25 07:59:00,74.9,74.0,30.15,NNE,15,1.0,6.0,97,0.00,,,0.00,Weather View 32 v70,2013-08-25 11:59:00,
2013-08-25 08:09:00,74.9,73.7,30.15,NNE,22,2.0,6.0,96,0.00,,,0.00,Weather View 32 v70,2013-08-25 12:09:00,
2013-08-25 08:20:00,75.1,73.9,30.15,NNE,24,2.0,6.0,96,0.00,,,0.00,Weather View 32 v70,2013-08-25 12:20:00,
2013-08-25 08:30:00,75.4,73.9,30.15,North,11,2.0,6.0,95,0.00,,,0.00,Weather View 32 v70,2013-08-25 12:30:00,
2013-08-25 08:40:00,75.7,74.2,30.16,North,5,2.0,6.0,95,0.00,,,0.00,Weather View 32 v70,2013-08-25 12:40:00,
2013-08-25 08:49:00,76.3,74.4,30.16,North,9,1.0,6.0,94,0.00,,,0.00,Weather View 32 v70,2013-08-25 12:49:00,
2013-08-25 08:54:00,76.3,74.4,30.16,North,9,1.0,6.0,94,0.00,,,0.00,Weather View 32 v70,2013-08-25 12:54:00,
2013-08-25 08:59:00,76.7,74.8,30.16,NNE,16,1.0,6.0,94,0.00,,,0.00,Weather View 32 v70,2013-08-25 12:59:00,
2013-08-25 09:09:00,76.9,74.7,30.16,NNE,22,4.0,6.0,93,0.00,,,0.00,Weather View 32 v70,2013-08-25 13:09:00,
2013-08-25 09:19:00,77.4,75.2,30.16,NNE,25,0.0,6.0,93,0.00,,,0.00,Weather View 32 v70,2013-08-25 13:19:00,
2013-08-25 09:29:00,77.7,75.5,30.16,NNE,22,0.0,6.0,93,0.00,,,0.00,Weather View 32 v70,2013-08-25 13:29:00,
2013-08-25 09:39:00,78.1,75.6,30.17,NNW,328,0.0,6.0,92,0.00,,,0.00,Weather View 32 v70,2013-08-25 13:39:00,
2013-08-25 09:49:00,78.2,75.3,30.17,NE,34,4.0,6.0,91,0.00,,,0.00,Weather View 32 v70,2013-08-25 13:49:00,
2013-08-25 09:54:00,78.2,75.3,30.17,NE,34,4.0,6.0,91,0.00,,,0.00,Weather View 32 v70,2013-08-25 13:54:00,
2013-08-25 10:00:00,78.4,75.2,30.17,NNE,19,3.0,6.0,90,0.00,,,0.00,Weather View 32 v70,2013-08-25 14:00:00,
2013-08-25 10:10:00,78.7,75.5,30.17,NE,36,0.0,5.0,90,0.00,,,0.00,Weather View 32 v70,2013-08-25 14:10:00,
2013-08-25 10:20:00,78.7,75.5,30.17,NNE,32,3.0,7.0,90,0.00,,,0.00,Weather View 32 v70,2013-08-25 14:20:00,
2013-08-25 10:29:00,78.9,75.4,30.17,NE,48,4.0,7.0,89,0.00,,,0.00,Weather View 32 v70,2013-08-25 14:29:00,
2013-08-25 10:39:00,79.1,75.6,30.18,NE,47,6.0,8.0,89,0.00,,,0.00,Weather View 32 v70,2013-08-25 14:39:00,
2013-08-25 10:49:00,79.4,75.5,30.18,NNE,25,2.0,8.0,88,0.00,,,0.00,Weather View 32 v70,2013-08-25 14:49:00,
2013-08-25 10:55:00,79.4,75.5,30.18,NNE,25,2.0,8.0,88,0.00,,,0.00,Weather View 32 v70,2013-08-25 14:55:00,
2013-08-25 10:59:00,79.5,75.6,30.18,NE,55,2.0,9.0,88,0.00,,,0.00,Weather View 32 v70,2013-08-25 14:59:00,
2013-08-25 11:09:00,80.0,76.1,30.18,North,355,5.0,9.0,88,0.00,,,0.00,Weather View 32 v70,2013-08-25 15:09:00,
2013-08-25 11:19:00,80.3,75.7,30.18,NNE,24,1.0,9.0,86,0.00,,,0.00,Weather View 32 v70,2013-08-25 15:19:00,
2013-08-25 11:29:00,80.7,76.1,30.18,NNE,24,5.0,10.0,86,0.00,,,0.00,Weather View 32 v70,2013-08-25 15:29:00,
2013-08-25 11:39:00,81.0,76.0,30.18,NE,42,2.0,10.0,85,0.00,,,0.00,Weather View 32 v70,2013-08-25 15:39:00,
2013-08-25 11:49:00,81.4,76.1,30.18,North,355,7.0,10.0,84,0.00,,,0.00,Weather View 32 v70,2013-08-25 15:49:00,
2013-08-25 11:56:00,81.4,76.1,30.18,North,355,7.0,10.0,84,0.00,,,0.00,Weather View 32 v70,2013-08-25 15:56:00,
2013-08-25 12:00:00,81.8,76.1,30.18,NE,40,5.0,10.0,83,0.00,,,0.00,Weather View 32 v70,2013-08-25 16:00:00,
2013-08-25 12:10:00,81.9,76.2,30.18,NNE,24,4.0,10.0,83,0.00,,,0.00,Weather View 32 v70,2013-08-25 16:10:00,
2013-08-25 12:19:00,82.1,75.7,30.17,NE,50,7.0,11.0,81,0.00,,,0.00,Weather View 32 v70,2013-08-25 16:19:00,
2013-08-25 12:29:00,82.3,76.2,30.17,North,9,4.0,11.0,82,0.00,,,0.00,Weather View 32 v70,2013-08-25 16:29:00,
2013-08-25 12:39:00,81.8,76.1,30.17,NNE,25,6.0,11.0,83,0.01,,,0.01,Weather View 32 v70,2013-08-25 16:39:00,
2013-08-25 12:49:00,82.2,75.4,30.16,NE,43,6.0,11.0,80,0.01,,,0.01,Weather View 32 v70,2013-08-25 16:49:00,
2013-08-25 12:56:00,82.2,75.4,30.16,NE,43,6.0,11.0,80,0.01,,,0.01,Weather View 32 v70,2013-08-25 16:56:00,
2013-08-25 13:10:00,81.1,75.1,30.17,ENE,68,8.0,16.0,82,0.01,,,0.01,Weather View 32 v70,2013-08-25 17:10:00,
2013-08-25 13:20:00,79.1,73.8,30.16,ENE,68,3.0,16.0,84,0.01,,,0.01,Weather View 32 v70,2013-08-25 17:20:00,
2013-08-25 13:29:00,79.3,74.7,30.15,ENE,74,0.0,16.0,86,0.01,,,0.01,Weather View 32 v70,2013-08-25 17:29:00,
2013-08-25 13:39:00,80.6,75.6,30.15,NE,46,5.0,16.0,85,0.00,,,0.01,Weather View 32 v70,2013-08-25 17:39:00,
2013-08-25 13:49:00,81.6,75.9,30.15,NE,51,6.0,16.0,83,0.00,,,0.01,Weather View 32 v70,2013-08-25 17:49:00,
2013-08-25 13:57:00,81.6,75.9,30.15,NE,51,6.0,16.0,83,0.00,,,0.01,Weather View 32 v70,2013-08-25 17:57:00,
2013-08-25 13:59:00,81.9,75.8,30.15,North,9,8.0,16.0,82,0.00,,,0.01,Weather View 32 v70,2013-08-25 17:59:00,
2013-08-25 14:09:00,82.0,75.6,30.15,NE,56,5.0,11.0,81,0.00,,,0.01,Weather View 32 v70,2013-08-25 18:09:00,
2013-08-25 14:20:00,82.1,75.7,30.15,NE,54,4.0,11.0,81,0.00,,,0.01,Weather View 32 v70,2013-08-25 18:20:00,
2013-08-25 14:30:00,82.0,75.9,30.15,ENE,76,3.0,11.0,82,0.00,,,0.01,Weather View 32 v70,2013-08-25 18:30:00,
2013-08-25 14:40:00,82.1,75.7,30.14,NNE,33,5.0,11.0,81,0.00,,,0.01,Weather View 32 v70,2013-08-25 18:40:00,
2013-08-25 14:49:00,82.2,75.8,30.14,NE,54,11.0,13.0,81,0.00,,,0.01,Weather View 32 v70,2013-08-25 18:49:00,
2013-08-25 14:58:00,82.2,75.8,30.14,NE,54,11.0,13.0,81,0.00,,,0.01,Weather View 32 v70,2013-08-25 18:58:00,
2013-08-25 14:59:00,82.1,75.7,30.13,ENE,73,5.0,13.0,81,0.00,,,0.01,Weather View 32 v70,2013-08-25 18:59:00,
2013-08-25 15:09:00,82.2,75.0,30.13,NE,49,7.0,13.0,79,0.00,,,0.01,Weather View 32 v70,2013-08-25 19:09:00,
2013-08-25 15:19:00,82.2,75.0,30.13,ENE,65,7.0,13.0,79,0.00,,,0.01,Weather View 32 v70,2013-08-25 19:19:00,
2013-08-25 15:29:00,82.3,75.1,30.12,NE,40,9.0,13.0,79,0.00,,,0.01,Weather View 32 v70,2013-08-25 19:29:00,
2013-08-25 15:39:00,82.3,75.1,30.13,NE,35,6.0,13.0,79,0.00,,,0.01,Weather View 32 v70,2013-08-25 19:39:00,
2013-08-25 15:49:00,82.1,75.7,30.12,North,360,3.0,13.0,81,0.00,,,0.01,Weather View 32 v70,2013-08-25 19:49:00,
2013-08-25 15:58:00,82.1,75.7,30.12,North,360,3.0,13.0,81,0.00,,,0.01,Weather View 32 v70,2013-08-25 19:58:00,
2013-08-25 15:59:00,82.0,75.2,30.12,ENE,65,4.0,13.0,80,0.00,,,0.01,Weather View 32 v70,2013-08-25 19:59:00,
2013-08-25 16:10:00,81.5,75.1,30.13,NNE,19,3.0,14.0,81,0.00,,,0.01,Weather View 32 v70,2013-08-25 20:10:00,
2013-08-25 16:20:00,80.5,74.5,30.13,NE,38,6.0,14.0,82,0.00,,,0.01,Weather View 32 v70,2013-08-25 20:20:00,
2013-08-25 16:30:00,80.3,74.6,30.13,NE,36,7.0,14.0,83,0.00,,,0.01,Weather View 32 v70,2013-08-25 20:30:00,
2013-08-25 16:40:00,79.8,74.5,30.14,NE,38,10.0,16.0,84,0.00,,,0.01,Weather View 32 v70,2013-08-25 20:40:00,
2013-08-25 16:50:00,78.9,74.0,30.13,NNE,30,8.0,16.0,85,0.01,,,0.02,Weather View 32 v70,2013-08-25 20:50:00,
2013-08-25 16:59:00,78.9,74.0,30.13,NNE,30,8.0,16.0,85,0.01,,,0.02,Weather View 32 v70,2013-08-25 20:59:00,
2013-08-25 17:09:00,76.7,73.2,30.13,NNW,345,7.0,16.0,89,0.01,,,0.02,Weather View 32 v70,2013-08-25 21:09:00,
2013-08-25 17:19:00,76.4,73.2,30.13,North,5,7.0,16.0,90,0.01,,,0.02,Weather View 32 v70,2013-08-25 21:19:00,
2013-08-25 17:29:00,76.8,73.6,30.13,NNE,21,3.0,16.0,90,0.01,,,0.02,Weather View 32 v70,2013-08-25 21:29:00,
2013-08-25 17:39:00,77.3,73.8,30.12,North,5,5.0,15.0,89,0.01,,,0.02,Weather View 32 v70,2013-08-25 21:39:00,
2013-08-25 17:49:00,77.7,74.2,30.12,North,355,5.0,15.0,89,0.00,,,0.02,Weather View 32 v70,2013-08-25 21:49:00,
2013-08-25 18:00:00,78.2,74.7,30.12,NNW,344,5.0,11.0,89,0.00,,,0.02,Weather View 32 v70,2013-08-25 22:00:00,
2013-08-25 18:09:00,78.8,74.9,30.13,NE,49,4.0,10.0,88,0.00,,,0.02,Weather View 32 v70,2013-08-25 22:09:00,
2013-08-25 18:20:00,79.0,75.5,30.13,NNE,12,0.0,10.0,89,0.00,,,0.02,Weather View 32 v70,2013-08-25 22:20:00,
2013-08-25 18:29:00,79.2,75.3,30.13,ENE,74,1.0,10.0,88,0.00,,,0.02,Weather View 32 v70,2013-08-25 22:29:00,
2013-08-25 18:39:00,79.2,75.3,30.12,NE,37,5.0,10.0,88,0.00,,,0.02,Weather View 32 v70,2013-08-25 22:39:00,
2013-08-25 18:50:00,79.2,75.3,30.12,North,350,4.0,10.0,88,0.00,,,0.02,Weather View 32 v70,2013-08-25 22:50:00,
2013-08-25 19:00:00,79.1,74.9,30.12,NE,40,6.0,10.0,87,0.00,,,0.02,Weather View 32 v70,2013-08-25 23:00:00,
2013-08-25 19:09:00,79.2,75.0,30.13,NE,39,3.0,9.0,87,0.00,,,0.02,Weather View 32 v70,2013-08-25 23:09:00,
2013-08-25 19:20:00,79.1,74.9,30.13,NNE,12,3.0,10.0,87,0.00,,,0.02,Weather View 32 v70,2013-08-25 23:20:00,
2013-08-25 19:29:00,78.9,74.7,30.13,NNW,348,6.0,10.0,87,0.00,,,0.02,Weather View 32 v70,2013-08-25 23:29:00,
2013-08-25 19:39:00,78.7,74.8,30.14,NNE,32,3.0,10.0,88,0.00,,,0.02,Weather View 32 v70,2013-08-25 23:39:00,
2013-08-25 19:50:00,78.5,74.6,30.14,North,355,2.0,10.0,88,0.00,,,0.02,Weather View 32 v70,2013-08-25 23:50:00,
2013-08-25 19:59:00,78.3,74.4,30.15,NNE,31,3.0,10.0,88,0.00,,,0.02,Weather View 32 v70,2013-08-25 23:59:00,
2013-08-25 20:01:00,78.3,74.4,30.15,NNE,31,3.0,10.0,88,0.00,,,0.02,Weather View 32 v70,2013-08-26 00:01:00,
2013-08-25 20:10:00,78.2,74.3,30.16,North,5,2.0,10.0,88,0.00,,,0.02,Weather View 32 v70,2013-08-26 00:10:00,
2013-08-25 20:20:00,78.1,73.9,30.16,NNE,17,4.0,10.0,87,0.00,,,0.02,Weather View 32 v70,2013-08-26 00:20:00,
2013-08-25 20:29:00,77.9,74.0,30.15,NNE,26,2.0,10.0,88,0.00,,,0.02,Weather View 32 v70,2013-08-26 00:29:00,
2013-08-25 20:40:00,77.8,73.9,30.16,North,355,3.0,9.0,88,0.00,,,0.02,Weather View 32 v70,2013-08-26 00:40:00,
2013-08-25 20:49:00,77.7,73.8,30.16,NNE,33,1.0,9.0,88,0.00,,,0.02,Weather View 32 v70,2013-08-26 00:49:00,
2013-08-25 20:59:00,77.6,73.7,30.17,North,11,0.0,7.0,88,0.00,,,0.02,Weather View 32 v70,2013-08-26 00:59:00,
2013-08-25 21:01:00,77.6,73.7,30.17,North,11,0.0,7.0,88,0.00,,,0.02,Weather View 32 v70,2013-08-26 01:01:00,
2013-08-25 21:10:00,77.6,73.7,30.16,North,360,3.0,7.0,88,0.00,,,0.02,Weather View 32 v70,2013-08-26 01:10:00,
2013-08-25 21:19:00,77.5,74.0,30.17,NNE,33,0.0,7.0,89,0.00,,,0.02,Weather View 32 v70,2013-08-26 01:19:00,
2013-08-25 21:30:00,77.3,73.8,30.17,NNE,22,0.0,7.0,89,0.00,,,0.02,Weather View 32 v70,2013-08-26 01:30:00,
2013-08-25 21:40:00,77.2,73.7,30.18,North,5,4.0,7.0,89,0.00,,,0.02,Weather View 32 v70,2013-08-26 01:40:00,
2013-08-25 21:49:00,77.1,73.6,30.17,NNE,16,1.0,7.0,89,0.00,,,0.02,Weather View 32 v70,2013-08-26 01:49:00,
2013-08-25 21:59:00,76.6,73.4,30.17,NNE,16,0.0,7.0,90,0.00,,,0.02,Weather View 32 v70,2013-08-26 01:59:00,
2013-08-25 22:02:00,76.6,73.4,30.17,NNE,16,0.0,7.0,90,0.00,,,0.02,Weather View 32 v70,2013-08-26 02:02:00,
2013-08-25 22:10:00,76.4,73.2,30.17,North,5,2.0,5.0,90,0.00,,,0.02,Weather View 32 v70,2013-08-26 02:10:00,
2013-08-25 22:19:00,76.3,73.1,30.18,NNE,26,0.0,5.0,90,0.00,,,0.02,Weather View 32 v70,2013-08-26 02:19:00,
2013-08-25 22:29:00,76.0,72.8,30.18,NNE,20,1.0,5.0,90,0.00,,,0.02,Weather View 32 v70,2013-08-26 02:29:00,
2013-08-25 22:40:00,75.8,73.0,30.18,NW,317,0.0,4.0,91,0.00,,,0.02,Weather View 32 v70,2013-08-26 02:40:00,
2013-08-25 22:49:00,75.7,72.9,30.18,NNE,22,0.0,4.0,91,0.00,,,0.02,Weather View 32 v70,2013-08-26 02:49:00,
2013-08-25 22:59:00,75.5,72.7,30.18,NE,38,0.0,4.0,91,0.00,,,0.02,Weather View 32 v70,2013-08-26 02:59:00,
2013-08-25 23:02:00,75.5,72.7,30.18,NE,38,0.0,4.0,91,0.00,,,0.02,Weather View 32 v70,2013-08-26 03:02:00,
2013-08-25 23:10:00,75.3,72.5,30.17,North,355,0.0,4.0,91,0.00,,,0.02,Weather View 32 v70,2013-08-26 03:10:00,
2013-08-25 23:19:00,75.1,72.3,30.18,NNE,30,0.0,3.0,91,0.00,,,0.02,Weather View 32 v70,2013-08-26 03:19:00,
2013-08-25 23:30:00,74.8,72.0,30.17,West,275,0.0,3.0,91,0.00,,,0.02,Weather View 32 v70,2013-08-26 03:30:00,
2013-08-25 23:40:00,74.7,72.2,30.17,West,275,0.0,3.0,92,0.00,,,0.02,Weather View 32 v70,2013-08-26 03:40:00,
2013-08-25 23:49:00,74.7,72.2,30.18,NNW,348,0.0,3.0,92,0.00,,,0.02,Weather View 32 v70,2013-08-26 03:49:00,